This demonstration page uses our WeatherBlox Daily Observations layout. Learn more.

Left ArrowRight Arrow

Hourly Observations for May 13, 2017

Temp ( °F °C ) Dew Point ( °F °C ) Humidity (%) Winds ( mph kmh ) Pressure ( in mb ) Visibility ( mi km ) Precip ( " mm )
12:52 am 00:52 Clear 56 13.3 52 11.1 87 87 Calm 29.93 1014 10 16 0.00 0.00
1:52 am 01:52 Clear 55 12.8 51 10.6 87 87 Calm 29.93 1014 10 16 0.00 0.00
2:52 am 02:52 Clear 53 11.7 51 10.6 93 93 Calm 29.93 1014 10 16 0.00 0.00
3:52 am 03:52 Clear 52 11.1 50 10 93 93 Calm 29.94 1014 10 16 0.00 0.00
4:52 am 04:52 Clear 52 11.1 49 9.4 89 89 Calm 29.95 1014 9 14 0.00 0.00
5:52 am 05:52 Clear 51 10.6 49 9.4 92 92 Calm 29.95 1014 10 16 0.00 0.00
6:52 am 06:52 Sunny 52 11.1 50 10 93 93 Calm 29.97 1015 8 13 0.00 0.00
7:52 am 07:52 Sunny 61 16.1 55 12.8 81 81 Calm 29.98 1015 10 16 0.00 0.00
8:52 am 08:52 Sunny 65 18.3 54 12.2 68 68 Calm 30.00 1016 10 16 0.00 0.00
9:52 am 09:52 Sunny 69 20.6 53 11.7 57 57 VRB 3 6 30.00 1016 10 16 0.00 0.00
10:52 am 10:52 Sunny 71 21.7 50 10 47 47 VRB 6 9 29.99 1016 10 16 0.00 0.00
11:52 am 11:52 Sunny 73 22.8 51 10.6 46 46 VRB 5 7 29.99 1016 10 16 0.00 0.00
12:52 pm 12:52 Mostly Sunny 74 23.3 51 10.6 45 45 N 5 7 29.98 1015 10 16 0.00 0.00
1:52 pm 13:52 Mostly Sunny 75 23.9 51 10.6 43 43 ENE 6 9 29.97 1015 10 16 0.00 0.00
2:52 pm 14:52 Mostly Sunny 75 23.9 50 10 41 41 Calm 29.96 1015 10 16 0.00 0.00
3:52 pm 15:52 Mostly Sunny 75 23.9 51 10.6 43 43 NE 7 11 29.93 1014 10 16 0.00 0.00
4:52 pm 16:52 Mostly Sunny 76 24.4 51 10.6 42 42 S 12 19 29.92 1013 10 16 0.00 0.00
5:52 pm 17:52 Sunny 76 24.4 51 10.6 42 42 SSE 10 17 29.91 1013 10 16 0.00 0.00
6:52 pm 18:52 Sunny 75 23.9 51 10.6 43 43 SSE 9 15 29.89 1012 10 16 0.00 0.00
7:52 pm 19:52 Sunny 70 21.1 51 10.6 51 51 SSE 7 11 29.89 1012 10 16 0.00 0.00
8:52 pm 20:52 Clear 65 18.3 52 11.1 63 63 SE 6 9 29.88 1012 10 16 0.00 0.00
9:52 pm 21:52 Clear 65 18.3 51 10.6 61 61 S 8 13 29.90 1012 10 16 0.00 0.00
10:52 pm 22:52 Clear 62 16.7 51 10.6 67 67 S 5 7 29.90 1013 10 16 0.00 0.00
11:52 pm 23:52 Clear 60 15.6 51 10.6 72 72 S 7 11 29.91 1013 10 16 0.00 0.00

Powered by AerisWeather